User: anonymous   Login
Location: Newark
(34.9471°N, 136.1778°E)
Time: 12:29:08
(UTC+00:00)
Language:

LilacSat-2 - Orbit

View from above orbital plane
View from above orbital plane
View from above satellite
View from above satellite

Ground track
Ground track

The orbit data is extracted from the following two-line orbital elements,

1 40908U 15049K   20048.15785711 -.00000064  00000-0  96883-7 0  9991
2 40908  97.4877  49.5313 0017491  81.2415 337.4209 15.13953311243642
Epoch (UTC): 17 February 2020 03:47:18
Eccentricity: 0.0017491
inclination: 97.4877°
perigee height: 512 km
apogee height: 536 km
right ascension of ascending node: 49.5313°
argument of perigee: 81.2415°
revolutions per day: 15.13953311
mean anomaly at epoch: 337.4209°
orbit number at epoch: 24364

The dashed part of the orbit path shows where the satellite is in the earth's shadow,  

DLR